Location: Exeidioux
(45.6312°N, 1.6819°E)
Time: 13:45:07
(UTC+00:00)

Cosmos 1666 - Pass Details

Date: 03 March 2021
Orbit: 497 x 518 km, 82.5° (Epoch: 15 April)

Event Time Altitude Azimuth Distance (km) Brightness Sun altitude
Rises 18:28:33 0° 150° (SSE) 2,573 5.9 -8.8°
Reaches altitude 10° 18:31:10 10° 130° (SE) 1,697 4.9 -9.2°
Maximum altitude 18:33:41 18° 87° (E) 1,301 4.1 -9.6°
Drops below altitude 10° 18:36:13 10° 44° (NE) 1,712 4.9 -10.1°
Sets 18:38:51 0° 25° (NNE) 2,605 6.0 -10.6°
